[Date Prev][Date Next][Thread Prev][Thread Next] - [Date Index][Thread Index][Author Index]

2 Line ISS Keps 10-2



ISS
1 25544U 98067A   07275.28321002  .00008769  00000-0  60944-4 0   874
2 25544 051.6344 271.4043 0002944 058.8628 062.7891 15.75349654507679
----
Sent via sarex@amsat.org. Opinions expressed are those of the author.
Not an AMSAT member? Join now to support the amateur satellite program!
Subscription settings: http://amsat.org/mailman/listinfo/sarex



AMSAT Top AMSAT Home